This is the latest recevied weather packets stored in our database for station/object K5KVN. If no packets are shown the sender has not sent any weather packets the latest 10 day(s).
| Time | Temp. | Humidity | Pressure | Rain* | Wind** | Luminosity | Snow |
|---|---|---|---|---|---|---|---|
| 1777728412 | 9.44° C | 87% | 1021.4 hPa | 0 mm | - | - | - |
| 1777727810 | 8.89° C | 89% | 1021.4 hPa | 0 mm | - | - | - |
| 1777727211 | 8.89° C | 89% | 1021.2 hPa | 0 mm | - | - | - |
| 1777726611 | 8.33° C | 90% | 1021.1 hPa | 0 mm | - | - | - |
| 1777726072 | 8.33° C | 91% | 1021.1 hPa | 0 mm | - | - | - |
| 1777725410 | 7.78° C | 92% | 1021.1 hPa | 0 mm | - | - | - |
| 1777724811 | 7.78° C | 93% | 1020.9 hPa | 0 mm | - | - | - |
| 1777724211 | 7.78° C | 93% | 1020.9 hPa | 0 mm | - | - | - |
| 1777723671 | 7.22° C | 93% | 1020.8 hPa | 0 mm | - | - | - |
| 1777723070 | 7.22° C | 93% | 1020.6 hPa | 0 mm | - | - | - |
| 1777722411 | 7.22° C | 93% | 1020.6 hPa | 0 mm | - | - | - |
| 1777721809 | 7.22° C | 93% | 1020.5 hPa | 0 mm | - | - | - |
| 1777721208 | 7.22° C | 93% | 1020.2 hPa | 0 mm | - | - | - |
| 1777720610 | 6.67° C | 93% | 1020.1 hPa | 0 mm | - | - | - |
| 1777720006 | 6.67° C | 93% | 1020.1 hPa | 0 mm | - | - | - |
| 1777719406 | 6.67° C | 92% | 1020 hPa | 0 mm | - | - | - |
| 1777718807 | 6.67° C | 93% | 1020 hPa | 0 mm | - | - | - |
| 1777718207 | 6.67° C | 93% | 1019.9 hPa | 0 mm | - | - | - |
| 1777717606 | 6.67° C | 93% | 1019.9 hPa | 0 mm | - | - | - |
| 1777717007 | 6.67° C | 94% | 1019.8 hPa | 0 mm | - | - | - |
| 1777716406 | 6.11° C | 93% | 1019.7 hPa | 0 mm | - | - | - |
| 1777715804 | 6.11° C | 93% | 1019.6 hPa | 0 mm | - | - | - |
| 1777715265 | 6.11° C | 93% | 1019.6 hPa | 0 mm | - | - | - |
| 1777714605 | 6.67° C | 93% | 1019.6 hPa | 0 mm | - | - | - |
| 1777714004 | 6.67° C | 94% | 1019.6 hPa | 0 mm | - | - | - |
* Rain latest hour (hover to see other rain measurements)
** Current wind speed in m/s (hover to see current wind gust speed)